Location: Mercogliano
(40.9167°N, 14.7333°E)
Time: 14:46:55
(UTC+00:00)

Resurs 01 Rocket - Pass Details

Date: 18 September 2020
Orbit: 633 x 645 km, 98.0° (Epoch: 29 October)

Event Time Altitude Azimuth Distance (km) Brightness Sun altitude
Exits shadow 19:19:14 36° 22° (NNE) 1,018 2.6 -25.4°
Drops below altitude 10° 19:22:09 10° 358° (N) 2,050 4.5 -25.8°
Sets 19:24:25 0° 353° (N) 2,964 5.5 -26.2°
